This demonstration page uses our WeatherBlox Daily Observations layout. Learn more.

Left ArrowRight Arrow

38.80484, -77.04692

Hourly Observations for September 10, 2021

Temp ( °F °C ) Dew Point ( °F °C ) Humidity (%) Winds ( mph kmh ) Pressure ( in mb ) Visibility ( mi km ) Precip ( " mm )
12:52 am 00:52 Mostly Clear 68 20 54 12.2 61 61 NNW 12 19 29.89 1012 10 16 N/A
1:52 am 01:52 Mostly Clear 67 19.4 53 11.7 61 61 NW 10 17 29.89 1012 10 16 N/A
2:52 am 02:52 Clear 67 19.4 52 11.1 59 59 WNW 12 19 29.90 1013 10 16 N/A
3:52 am 03:52 Clear 67 19.4 51 10.6 57 57 WNW 15 24 29.91 1013 10 16 N/A
4:52 am 04:52 Clear 64 17.8 52 11.1 65 65 NW 7 11 29.93 1013 10 16 N/A
5:52 am 05:52 Mostly Clear 65 18.3 51 10.6 61 61 NW 9 15 29.95 1014 10 16 N/A
6:52 am 06:52 Mostly Sunny 63 17.2 52 11.1 68 68 NW 12 19 29.97 1015 10 16 N/A
7:52 am 07:52 Mostly Sunny 64 17.8 52 11.1 65 65 NW 15 24 29.99 1016 10 16 N/A
8:52 am 08:52 Mostly Sunny 67 19.4 54 12.2 63 63 NNW 17 28 30.01 1016 10 16 N/A
9:52 am 09:52 Mostly Sunny 69 20.6 54 12.2 59 59 NW 15 24 30.02 1017 10 16 N/A
10:52 am 10:52 Partly Cloudy 72 22.2 54 12.2 53 53 NW 14 22 30.03 1017 10 16 N/A
11:52 am 11:52 Partly Cloudy 74 23.3 53 11.7 48 48 NW 15 24 30.03 1017 10 16 N/A
12:52 pm 12:52 Mostly Sunny 75 23.9 53 11.7 46 46 NW 8 13 30.02 1017 10 16 N/A
1:52 pm 13:52 Partly Cloudy 76 24.4 52 11.1 43 43 NW 15 24 30.03 1017 10 16 N/A
2:52 pm 14:52 Partly Cloudy 77 25 52 11.1 42 42 WNW 13 20 30.02 1017 10 16 N/A
3:52 pm 15:52 Partly Cloudy 77 25 49 9.4 37 37 NW 14 22 30.02 1017 10 16 N/A
4:52 pm 16:52 Partly Cloudy 77 25 49 9.4 37 37 WNW 13 20 30.03 1017 10 16 N/A
5:52 pm 17:52 Partly Cloudy 76 24.4 50 10 40 40 NW 10 17 30.04 1017 10 16 N/A
6:52 pm 18:52 Mostly Sunny 74 23.3 49 9.4 41 41 WNW 8 13 30.05 1018 10 16 N/A
7:52 pm 19:52 Mostly Clear 72 22.2 50 10 46 46 VRB 3 6 30.07 1018 10 16 N/A
8:52 pm 20:52 Mostly Clear 70 21.1 52 11.1 53 53 W 3 6 30.09 1019 10 16 N/A
9:52 pm 21:52 Clear 70 21.1 54 12.2 57 57 N N/A 30.11 1020 10 16 N/A
10:52 pm 22:52 Partly Cloudy 66 18.9 54 12.2 65 65 N N/A 30.12 1020 10 16 N/A
11:52 pm 23:52 Partly Cloudy 66 18.9 55 12.8 68 68 S 3 6 30.14 1021 10 16 N/A

Powered by AerisWeather